TITAN 3C TRANSTAGE DEB, 1961

Orbit data source: Space-Track

TITAN 3C TRANSTAGE DEB, 1961 is space debris in LEO originally from a launch on Fri, 15 Oct 1965 UTC launched from the Air Force Eastern Test Range (AFETR). Debris objects in space refer to the collection of defunct objects orbiting the Earth. Examples of debris include non-operational satellites, rocket bodies, and fragments generated from explosions, collisions, or faulty payload assembly.

Loading next visibility...
Identifier
1961, 1965-082GW
Orbit
LEO
Country
Flag of USUS
Related business
Manufacturer
Unknown
Mission
Spacecraft
Bus & Motor
Unknown
Mass
Unknown
Launch date (UTC)
1965-10-15 (60 years ago)
Launch vehicle
Unknown
Launch site
Air Force Eastern Test Range (AFETR)
Object type
Payload
Rocket body
Debris
Shape & HBR
Unknown shape, 0.1 m
Radar Cross Section
Small (<0.1 m²)

Expand to show TLE details & history
Last TLE update: 3 days ago

TLE from 3 days ago
0 TITAN 3C TRANSTAGE DEB
1 01961U 65082GW  25307.12126457  .00007113  00000-0  39486-3 0  9998
2 01961  31.8578 302.3273 0003671 182.2145 177.8494 15.12497460209854
Epoch: 2025-11-03T02:54Z
TLE epoch observation values (Epoch: 2025-11-03T02:54:37.258Z)
Latitude
-0.00001°
Longitude
-143.95515°
Altitude
529.712 km
Speed
7.599 km/s
True Right ascension
20h 09m 18s
True Declination
0° 00' 00"
Sunlit
Object was in daylight at epoch
Visualization orbit readout
Latitude
Unknown
Longitude
Unknown
Altitude
Unknown
Speed
Unknown
Apparent Right ascension
Unknown
Apparent Declination
Unknown
Sunlit
N/A
Visualization observer readout
Local Sidereal Time
11:48:15
Azimuth
Unknown
Elevation
Unknown
Doppler factor
Unknown
Orbital elements
Apogee altitude
534.841 km
Perigee altitude
529.767 km
Semi-major axis
6,910.441 km
Eccentricity
0.00037
Inclination
31.8578°
RAAN
302.3273°
Arg. of periapsis
182.2145°
True anomaly
177.85098°
Mean anomaly
177.8494°
Eccentric anomaly
177.85019°
Mean motion
3.7782 °/min
Orbital period
95.28 mins
BSTAR
0.00039486

Documentation

Showing up to 5 results
|